Weather reports worldwide

Advertisment
Capo Caccia, Italy (16522): temperature & dewpoint: 18.04.2018 06:00:00 - 24.04.2018 06:00:00 (CEST)Capo Caccia, Italy (16522): wind speed: 18.04.2018 06:00:00 - 24.04.2018 06:00:00 (CEST)Capo Caccia, Italy (16522): wind direction: 18.04.2018 06:00:00 - 24.04.2018 06:00:00 (CEST)Capo Caccia, Italy (16522): reduced air pressure: 18.04.2018 06:00:00 - 24.04.2018 06:00:00 (CEST)Capo Caccia, Italy (16522): visibility: 18.04.2018 06:00:00 - 24.04.2018 06:00:00 (CEST)Capo Caccia, Italy (16522): sunshine duration: 18.04.2018 06:00:00 - 24.04.2018 06:00:00 (CEST)
Date & Time tt [°C] td [°C] ff [km/h] ff [kn] dd ppp [hPa] vv [km] sd [min]
24.04.2018 06:00:00 16,4 13,0 5 3 S 1019,0 20 -
24.04.2018 05:00:00 16,8 13,3 2 1 SSE 1019,0 20 -
24.04.2018 04:00:00 15,6 12,0 9 5 SSE 1019,2 20 -
24.04.2018 03:00:00 16,4 12,2 9 5 E 1019,3 20 -
24.04.2018 02:00:00 17,0 5,3 0 0 N 1019,9 20 -
24.04.2018 01:00:00 16,8 7,7 5 3 NE 1019,9 20 -
24.04.2018 00:00:00 16,6 10,7 5 3 ENE 1019,7 20 -
23.04.2018 23:00:00 16,8 12,4 9 5 ENE 1019,5 20 -
23.04.2018 22:00:00 16,8 13,3 15 8 NE 1019,3 20 -
23.04.2018 21:00:00 18,0 12,9 13 7 NE 1019,0 20 -
23.04.2018 20:00:00 19,4 7,8 9 5 NNE 1018,9 20 30
23.04.2018 19:00:00 20,8 7,4 8 4 N 1018,8 20 60
23.04.2018 18:00:00 22,0 7,0 8 4 NNW 1018,7 20 60
23.04.2018 17:00:00 22,4 8,9 8 4 NNW 1018,6 20 60
23.04.2018 16:00:00 23,4 11,1 13 7 NNW 1019,4 20 60
23.04.2018 15:00:00 23,4 9,8 11 6 NW 1019,6 20 60
23.04.2018 14:00:00 23,4 11,1 11 6 NW 1019,9 20 60
23.04.2018 13:00:00 23,4 9,8 5 3 NW 1020,4 20 60
23.04.2018 12:00:00 24,2 10,5 8 4 NE 1020,5 20 60
23.04.2018 11:00:00 22,2 8,0 8 4 NE 1020,7 20 60
23.04.2018 10:00:00 20,4 11,3 4 2 NNW 1020,1 20 60
23.04.2018 09:00:00 19,6 7,4 0 0 N 1019,9 20 60
23.04.2018 08:00:00 17,0 8,7 8 4 ENE 1020,0 20 12
23.04.2018 07:00:00 15,0 11,2 11 6 ENE 1020,2 20 -
23.04.2018 06:00:00 15,4 10,0 5 3 NE 1020,2 15 -
23.04.2018 05:00:00 14,8 13,2 9 5 E 1021,0 15 -
23.04.2018 04:00:00 14,8 13,2 8 4 ENE 1020,2 15 -
23.04.2018 03:00:00 15,0 14,4 11 6 E 1020,2 15 -
23.04.2018 02:00:00 15,6 14,8 9 5 SSE 1020,9 15 -
23.04.2018 01:00:00 16,0 15,0 8 4 SSE 1020,7 15 -
23.04.2018 00:00:00 15,6 14,8 8 4 SSE 1020,5 15 -
22.04.2018 23:00:00 15,6 14,6 13 7 E 1020,0 15 -
22.04.2018 22:00:00 17,0 13,5 9 5 ENE 1019,7 15 -
22.04.2018 21:00:00 18,0 14,5 8 4 N 1018,8 15 -
22.04.2018 20:00:00 20,4 7,4 9 5 NNE 1018,4 20 60
22.04.2018 19:00:00 21,4 9,0 9 5 NNW 1018,4 20 60
22.04.2018 18:00:00 21,4 9,0 9 5 NNW 1018,4 20 60
22.04.2018 17:00:00 21,4 10,6 9 5 NNW 1018,7 20 60
22.04.2018 16:00:00 20,6 11,5 9 5 N 1018,8 20 60
22.04.2018 15:00:00 20,0 10,1 11 6 NW 1019,7 20 60
22.04.2018 14:00:00 20,0 8,1 13 7 NW 1019,9 20 60
22.04.2018 13:00:00 19,6 8,9 8 4 NNW 1019,9 20 60
22.04.2018 12:00:00 20,0 13,2 8 4 WNW 1019,6 20 60
22.04.2018 11:00:00 19,8 14,2 5 3 ENE 1019,5 20 60
22.04.2018 10:00:00 18,2 12,7 0 0 N 1019,8 20 60
22.04.2018 09:00:00 16,0 14,9 5 3 E 1019,5 10 0
22.04.2018 08:00:00 16,0 14,0 5 3 SE 1019,2 20 0
22.04.2018 07:00:00 15,6 12,2 0 0 N 1019,1 20 -
22.04.2018 06:00:00 15,6 12,9 0 0 N 1018,8 20 -
22.04.2018 05:00:00 14,6 13,3 11 6 E 1019,3 20 -
22.04.2018 04:00:00 16,0 9,7 5 3 NE 1019,5 20 -
22.04.2018 03:00:00 17,6 7,1 5 3 SE 1019,6 20 -
22.04.2018 02:00:00 17,6 7,1 4 2 NE 1019,8 20 -
22.04.2018 01:00:00 17,4 6,9 8 4 ENE 1019,8 20 -
22.04.2018 00:00:00 17,4 6,0 8 4 NNE 1019,8 20 -
21.04.2018 23:00:00 17,4 8,3 9 5 NNE 1019,8 20 -
21.04.2018 22:00:00 17,2 9,4 11 6 NNE 1019,6 20 -
21.04.2018 21:00:00 17,2 8,4 8 4 N 1019,3 20 -
21.04.2018 20:00:00 18,0 8,6 13 7 N 1019,3 20 42
21.04.2018 19:00:00 18,6 9,1 8 4 N 1019,2 20 60
21.04.2018 18:00:00 18,0 10,9 11 6 NW 1019,5 20 60
21.04.2018 17:00:00 17,6 14,7 15 8 NW 1019,6 20 60
21.04.2018 16:00:00 17,2 15,0 15 8 NW 1020,1 20 60
21.04.2018 15:00:00 17,2 16,1 18 10 NW 1020,2 20 60
21.04.2018 14:00:00 17,4 15,7 18 10 WNW 1020,6 20 60
21.04.2018 13:00:00 18,0 12,9 11 6 WNW 1020,7 20 60
21.04.2018 12:00:00 21,2 9,1 8 4 W 1020,4 20 60
21.04.2018 11:00:00 21,6 10,1 0 0 N 1020,0 20 60
21.04.2018 10:00:00 20,4 9,6 0 0 N 1019,9 20 60
21.04.2018 09:00:00 19,0 8,9 4 2 NNE 1020,0 20 60
21.04.2018 08:00:00 17,8 9,2 5 3 NE 1020,1 20 0
21.04.2018 07:00:00 15,0 7,8 4 2 NE 1020,3 20 -
21.04.2018 06:00:00 15,2 8,9 5 3 NNE 1020,4 15 -
21.04.2018 05:00:00 15,6 9,0 5 3 N 1021,1 15 -
21.04.2018 04:00:00 15,8 9,0 8 4 NNW 1021,3 15 -
21.04.2018 03:00:00 15,8 10,1 5 3 WNW 1021,5 15 -
21.04.2018 02:00:00 16,6 12,2 8 4 NNW 1021,6 15 -
21.04.2018 01:00:00 15,2 10,6 8 4 NW 1021,6 15 -
21.04.2018 00:00:00 15,2 14,4 5 3 WSW 1021,6 15 -
20.04.2018 23:00:00 16,0 14,5 5 3 SSW 1021,5 15 -
20.04.2018 22:00:00 16,0 13,5 2 1 E 1021,5 15 -
20.04.2018 21:00:00 16,6 11,7 4 2 SSW 1021,5 15 -
20.04.2018 20:00:00 16,0 11,6 8 4 NE 1021,2 15 0
20.04.2018 19:00:00 16,0 12,5 4 2 NW 1022,1 10 0
20.04.2018 18:00:00 15,2 13,6 5 3 SSW 1022,3 10 0
20.04.2018 17:00:00 17,0 16,0 9 5 ENE 1022,2 20 0
20.04.2018 16:00:00 19,6 15,9 9 5 WNW 1022,0 20 30
20.04.2018 15:00:00 20,0 15,0 11 6 WNW 1022,0 20 48
20.04.2018 14:00:00 20,2 14,8 5 3 WNW 1022,7 20 60
20.04.2018 13:00:00 21,6 15,0 8 4 WNW 1022,8 20 60
20.04.2018 12:00:00 21,0 14,7 5 3 NE 1022,9 20 60
20.04.2018 11:00:00 20,0 15,0 5 3 ENE 1022,9 20 60
20.04.2018 10:00:00 18,4 13,9 5 3 ENE 1023,0 20 60
20.04.2018 09:00:00 17,0 13,5 0 0 N 1023,0 20 60
20.04.2018 08:00:00 15,6 12,5 0 0 N 1023,1 20 6
20.04.2018 07:00:00 16,4 13,9 0 0 N 1023,0 15 -
20.04.2018 06:00:00 16,4 13,7 5 3 N 1023,2 15 -
20.04.2018 05:00:00 16,4 13,9 8 4 NNE 1024,1 10 -
20.04.2018 04:00:00 16,4 13,9 8 4 NNE 1024,1 15 -
20.04.2018 03:00:00 16,4 14,8 0 0 N 1024,1 15 -
20.04.2018 02:00:00 16,4 13,9 0 0 N 1024,1 15 -
20.04.2018 01:00:00 16,2 13,5 9 5 E 1024,0 15 -
20.04.2018 00:00:00 16,0 12,9 16 9 ENE 1024,1 15 -
19.04.2018 23:00:00 15,8 15,5 16 9 NE 1024,1 10 -
19.04.2018 22:00:00 16,0 14,0 26 14 NNE 1024,1 15 -
19.04.2018 21:00:00 16,6 13,1 18 10 N 1024,0 15 0
19.04.2018 20:00:00 16,8 13,7 18 10 W 1024,0 15 0
19.04.2018 19:00:00 20,6 18,0 15 8 S 1023,5 5 0
19.04.2018 18:00:00 21,0 14,2 9 5 N 1023,4 15 0
19.04.2018 17:00:00 22,0 15,1 9 5 NNE 1023,6 20 12
19.04.2018 16:00:00 23,0 14,8 8 4 NE 1023,7 20 60
19.04.2018 15:00:00 23,0 14,8 9 5 NNW 1023,9 20 60
19.04.2018 14:00:00 22,6 14,4 5 3 N 1024,6 20 60
19.04.2018 13:00:00 22,8 14,6 13 7 NNE 1024,7 20 60
19.04.2018 12:00:00 21,6 14,0 18 10 NE 1024,8 20 60
19.04.2018 11:00:00 20,6 13,8 21 11 NE 1024,9 20 60
19.04.2018 10:00:00 18,4 13,3 15 8 ENE 1025,1 20 60
19.04.2018 09:00:00 17,6 12,7 15 8 ENE 1025,0 20 18
19.04.2018 08:00:00 16,0 11,6 22 12 NE 1024,2 20 0
19.04.2018 07:00:00 15,2 11,4 13 7 NE 1024,3 20 0
19.04.2018 06:00:00 15,2 11,6 11 6 NE 1024,5 20 -
19.04.2018 05:00:00 15,4 12,0 13 7 ENE 1024,8 20 -
19.04.2018 04:00:00 16,0 12,0 13 7 NE 1025,3 20 -
19.04.2018 03:00:00 16,2 12,7 16 9 NE 1025,2 20 -
19.04.2018 02:00:00 16,6 12,4 18 10 ENE 1025,3 20 -
19.04.2018 01:00:00 16,4 11,8 8 4 NE 1025,3 20 -
19.04.2018 00:00:00 16,2 13,7 8 4 ENE 1025,3 20 -
18.04.2018 23:00:00 16,2 12,7 4 2 NE 1025,2 20 -
18.04.2018 22:00:00 16,4 13,3 0 0 N 1025,2 20 -
18.04.2018 21:00:00 16,4 14,4 4 2 SSE 1024,2 20 -
18.04.2018 20:00:00 16,4 14,8 5 3 ESE 1024,2 20 0
18.04.2018 19:00:00 18,0 14,1 5 3 ESE 1024,1 20 0
18.04.2018 18:00:00 19,0 12,7 9 5 S 1023,3 20 30
18.04.2018 17:00:00 22,0 13,4 34 18 NNE 1022,7 20 18
18.04.2018 16:00:00 22,0 13,9 39 21 NE 1022,7 20 60
18.04.2018 15:00:00 22,6 14,4 31 17 NE 1022,7 20 60
18.04.2018 14:00:00 23,0 14,8 29 16 NE 1022,6 20 60
18.04.2018 13:00:00 22,0 14,1 29 16 NNE 1023,5 20 60
18.04.2018 12:00:00 21,0 14,2 26 14 NE 1023,8 20 60
18.04.2018 11:00:00 20,0 13,5 22 12 NE 1023,7 20 60
18.04.2018 10:00:00 18,0 12,9 28 15 NE 1023,4 20 60
18.04.2018 09:00:00 16,8 13,0 21 11 NE 1023,3 20 54
18.04.2018 08:00:00 13,8 12,2 28 15 NE 1023,6 20 0
18.04.2018 07:00:00 13,0 12,2 22 12 NE 1023,5 12 0
18.04.2018 06:00:00 13,2 10,5 5 3 NE 1023,5 15 -

tt = temperature
td = dewpoint
ff = wind speed
dd = wind direction
ppp = reduced air pressure
vv = visibility
sd = sunshine duration

Next stations